Location: Eschertshofen
(49.3064°N, 11.5756°E)
Time: 03:58:33
(UTC+00:00)

CZ-2C R/B - Pass Details

Date: 18 September 2020
Orbit: 640 x 704 km, 98.4° (Epoch: 19 October)

Event Time Altitude Azimuth Distance (km) Brightness Sun altitude
Rises 19:58:22 0° 12° (NNE) 2,961 7.4 -25.0°
Reaches altitude 10° 20:00:34 10° 10° (N) 2,050 6.5 -25.3°
Maximum altitude 20:05:00 69° 288° (WNW) 699 3.9 -25.9°
Enters shadow 20:05:31 62° 245° (WSW) 735 3.9 -26.0°
